Time,TemperatureF,DewpointF,PressureIn,WindDirection,WindDirectionDegrees,WindSpeedMPH,WindSpeedGustMPH,Humidity,HourlyPrecipIn,Conditions,Clouds,dailyrainin,SolarRadiationWatts/m^2,SoftwareType,DateUTC
2013-07-30 00:02:00,61.3,46.0,29.92,West,277,0.0,0.0,57,0.00,,---,0.00,0.00,VWS V14.01,2013-07-30 07:02:00,
2013-07-30 00:07:00,60.9,46.5,29.92,West,277,0.0,0.0,59,0.00,,---,0.00,0.00,VWS V14.01,2013-07-30 07:07:00,
2013-07-30 00:12:00,60.7,46.8,29.92,West,277,0.0,0.0,60,0.00,,---,0.00,0.00,VWS V14.01,2013-07-30 07:12:00,
2013-07-30 00:17:00,60.3,46.8,29.92,SW,232,1.0,3.0,61,0.00,,---,0.00,0.00,VWS V14.01,2013-07-30 07:17:00,
2013-07-30 00:22:00,60.2,46.7,29.92,SW,232,0.0,3.0,61,0.00,,---,0.00,0.00,VWS V14.01,2013-07-30 07:22:00,
2013-07-30 00:27:00,60.1,46.2,29.92,SW,232,0.0,3.0,60,0.00,,---,0.00,0.00,VWS V14.01,2013-07-30 07:27:00,
2013-07-30 00:32:00,59.8,45.9,29.92,WSW,240,1.0,1.0,60,0.00,,---,0.00,0.00,VWS V14.01,2013-07-30 07:32:00,
2013-07-30 00:37:00,59.6,46.6,29.92,WSW,248,0.0,1.0,62,0.00,,---,0.00,0.00,VWS V14.01,2013-07-30 07:37:00,
2013-07-30 00:42:00,59.4,46.4,29.92,WSW,248,0.0,1.0,62,0.00,,---,0.00,0.00,VWS V14.01,2013-07-30 07:42:00,
2013-07-30 00:47:00,59.0,46.4,29.92,West,259,0.0,1.0,63,0.00,,---,0.00,0.00,VWS V14.01,2013-07-30 07:47:00,
2013-07-30 00:52:00,58.6,46.1,29.92,West,259,0.0,1.0,63,0.00,,---,0.00,0.00,VWS V14.01,2013-07-30 07:52:00,
2013-07-30 00:57:00,58.2,46.5,29.92,West,259,1.0,1.0,65,0.00,,---,0.00,0.00,VWS V14.01,2013-07-30 07:57:00,
2013-07-30 01:02:00,57.9,46.2,29.92,WNW,298,0.0,3.0,65,0.00,,---,0.00,0.00,VWS V14.01,2013-07-30 08:02:00,
2013-07-30 01:07:00,58.1,46.4,29.92,West,267,1.0,4.0,65,0.00,,---,0.00,0.00,VWS V14.01,2013-07-30 08:07:00,
2013-07-30 01:12:00,58.3,46.6,29.92,ENE,76,0.0,4.0,65,0.00,,---,0.00,0.00,VWS V14.01,2013-07-30 08:12:00,
2013-07-30 01:17:00,58.0,45.9,29.92,WNW,287,1.0,4.0,64,0.00,,---,0.00,0.00,VWS V14.01,2013-07-30 08:17:00,
2013-07-30 01:22:00,57.7,45.2,29.92,NW,314,3.0,4.0,63,0.00,,---,0.00,0.00,VWS V14.01,2013-07-30 08:22:00,
2013-07-30 01:27:00,57.8,44.9,29.92,NW,311,1.0,4.0,62,0.00,,---,0.00,0.00,VWS V14.01,2013-07-30 08:27:00,
2013-07-30 01:32:00,58.1,44.3,29.92,WNW,300,5.0,5.0,60,0.00,,---,0.00,0.00,VWS V14.01,2013-07-30 08:32:00,
2013-07-30 01:37:00,58.3,44.0,29.92,NW,315,0.0,5.0,59,0.00,,---,0.00,0.00,VWS V14.01,2013-07-30 08:37:00,
2013-07-30 01:42:00,58.6,43.4,29.92,North,5,3.0,5.0,57,0.00,,---,0.00,0.00,VWS V14.01,2013-07-30 08:42:00,
2013-07-30 01:47:00,58.7,43.1,29.92,NNW,333,2.0,6.0,56,0.00,,---,0.00,0.00,VWS V14.01,2013-07-30 08:47:00,
2013-07-30 01:52:00,58.7,43.1,29.93,NNE,29,2.0,6.0,56,0.00,,---,0.00,0.00,VWS V14.01,2013-07-30 08:52:00,
2013-07-30 01:57:00,58.8,43.2,29.93,NE,38,0.0,6.0,56,0.00,,---,0.00,0.00,VWS V14.01,2013-07-30 08:57:00,
2013-07-30 02:02:00,58.7,43.1,29.93,North,5,3.0,8.0,56,0.00,,---,0.00,0.00,VWS V14.01,2013-07-30 09:02:00,
2013-07-30 02:07:00,58.5,43.8,29.93,NNE,27,3.0,10.0,58,0.00,,---,0.00,0.00,VWS V14.01,2013-07-30 09:07:00,
2013-07-30 02:12:00,58.4,43.7,29.93,NE,34,8.0,10.0,58,0.00,,---,0.00,0.00,VWS V14.01,2013-07-30 09:12:00,
2013-07-30 02:17:00,58.1,43.4,29.93,North,350,3.0,10.0,58,0.00,,---,0.00,0.00,VWS V14.01,2013-07-30 09:17:00,
2013-07-30 02:22:00,58.0,43.3,29.93,NE,38,6.0,10.0,58,0.00,,---,0.00,0.00,VWS V14.01,2013-07-30 09:22:00,
2013-07-30 02:27:00,57.8,43.1,29.93,North,5,6.0,10.0,58,0.00,,---,0.00,0.00,VWS V14.01,2013-07-30 09:27:00,
2013-07-30 02:32:00,57.7,43.0,29.93,NNE,12,2.0,6.0,58,0.00,,---,0.00,0.00,VWS V14.01,2013-07-30 09:32:00,
2013-07-30 02:37:00,57.5,42.8,29.93,NNW,336,6.0,7.0,58,0.00,,---,0.00,0.00,VWS V14.01,2013-07-30 09:37:00,
2013-07-30 02:42:00,57.3,41.3,29.93,NNE,13,3.0,8.0,55,0.00,,---,0.00,0.00,VWS V14.01,2013-07-30 09:42:00,
2013-07-30 02:47:00,57.2,40.7,29.93,NE,45,3.0,9.0,54,0.00,,---,0.00,0.00,VWS V14.01,2013-07-30 09:47:00,
2013-07-30 02:52:00,57.1,39.7,29.93,North,5,4.0,9.0,52,0.00,,---,0.00,0.00,VWS V14.01,2013-07-30 09:52:00,
2013-07-30 02:57:00,56.9,38.5,29.94,NNE,19,5.0,9.0,50,0.00,,---,0.00,0.00,VWS V14.01,2013-07-30 09:57:00,
2013-07-30 03:02:00,56.9,37.4,29.94,NNE,14,3.0,8.0,48,0.00,,---,0.00,0.00,VWS V14.01,2013-07-30 10:02:00,
2013-07-30 03:07:00,56.7,37.2,29.94,North,9,5.0,8.0,48,0.00,,---,0.00,0.00,VWS V14.01,2013-07-30 10:07:00,
2013-07-30 03:12:00,56.6,37.2,29.94,NNE,13,5.0,8.0,48,0.00,,---,0.00,0.00,VWS V14.01,2013-07-30 10:12:00,
2013-07-30 03:17:00,56.4,36.4,29.94,North,360,3.0,8.0,47,0.00,,---,0.00,0.00,VWS V14.01,2013-07-30 10:17:00,
2013-07-30 03:22:00,56.3,35.2,29.94,NNW,338,5.0,8.0,45,0.00,,---,0.00,0.00,VWS V14.01,2013-07-30 10:22:00,
2013-07-30 03:27:00,56.1,35.1,29.94,North,360,3.0,8.0,45,0.00,,---,0.00,0.00,VWS V14.01,2013-07-30 10:27:00,
2013-07-30 03:32:00,56.0,33.2,29.94,NNW,346,5.0,6.0,42,0.00,,---,0.00,0.00,VWS V14.01,2013-07-30 10:32:00,
2013-07-30 03:37:00,55.9,32.6,29.94,NNW,340,3.0,6.0,41,0.00,,---,0.00,0.00,VWS V14.01,2013-07-30 10:37:00,
2013-07-30 03:42:00,55.9,30.7,29.94,North,11,5.0,6.0,38,0.00,,---,0.00,0.00,VWS V14.01,2013-07-30 10:42:00,
2013-07-30 03:47:00,55.8,31.2,29.94,NNE,30,7.0,7.0,39,0.00,,---,0.00,0.00,VWS V14.01,2013-07-30 10:47:00,
2013-07-30 03:52:00,55.8,31.9,29.95,North,5,2.0,7.0,40,0.00,,---,0.00,0.00,VWS V14.01,2013-07-30 10:52:00,
2013-07-30 03:57:00,55.7,33.0,29.95,North,351,4.0,7.0,42,0.00,,---,0.00,0.00,VWS V14.01,2013-07-30 10:57:00,
2013-07-30 04:02:00,55.7,33.6,29.95,NNE,26,5.0,7.0,43,0.00,,---,0.00,0.00,VWS V14.01,2013-07-30 11:02:00,
2013-07-30 04:07:00,55.7,34.1,29.95,NE,37,4.0,7.0,44,0.00,,---,0.00,0.00,VWS V14.01,2013-07-30 11:07:00,
2013-07-30 04:12:00,55.7,35.3,29.95,North,9,4.0,7.0,46,0.00,,---,0.00,0.00,VWS V14.01,2013-07-30 11:12:00,
2013-07-30 04:17:00,55.6,35.7,29.95,NNE,24,4.0,7.0,47,0.00,,---,0.00,0.00,VWS V14.01,2013-07-30 11:17:00,
2013-07-30 04:22:00,55.5,35.6,29.95,NNE,17,3.0,8.0,47,0.00,,---,0.00,0.00,VWS V14.01,2013-07-30 11:22:00,
2013-07-30 04:27:00,55.4,36.1,29.95,NNW,344,6.0,8.0,48,0.00,,---,0.00,0.00,VWS V14.01,2013-07-30 11:27:00,
2013-07-30 04:32:00,55.3,35.4,29.95,North,360,4.0,7.0,47,0.00,,---,0.00,0.00,VWS V14.01,2013-07-30 11:32:00,
2013-07-30 04:37:00,55.2,34.8,29.96,NNE,20,5.0,7.0,46,0.00,,---,0.00,0.00,VWS V14.01,2013-07-30 11:37:00,
2013-07-30 04:42:00,55.2,34.2,29.96,NE,41,3.0,7.0,45,0.00,,---,0.00,0.00,VWS V14.01,2013-07-30 11:42:00,
2013-07-30 04:47:00,55.2,35.9,29.96,NE,50,3.0,7.0,48,0.00,,---,0.00,0.00,VWS V14.01,2013-07-30 11:47:00,
2013-07-30 04:52:00,55.2,37.9,29.96,North,355,7.0,8.0,52,0.00,,---,0.00,0.00,VWS V14.01,2013-07-30 11:52:00,
2013-07-30 04:57:00,55.1,39.2,29.96,NNE,12,5.0,10.0,55,0.00,,---,0.00,0.00,VWS V14.01,2013-07-30 11:57:00,
2013-07-30 05:03:00,55.1,39.2,29.96,NE,36,3.0,3.0,55,0.00,,---,0.00,0.00,VWS V14.01,2013-07-30 12:03:00,
2013-07-30 05:07:00,55.0,39.6,29.96,ENE,62,7.0,13.0,56,0.00,,---,0.00,0.00,VWS V14.01,2013-07-30 12:07:00,
2013-07-30 05:12:00,54.8,40.8,29.97,North,350,5.0,13.0,59,0.00,,---,0.00,0.00,VWS V14.01,2013-07-30 12:12:00,
2013-07-30 05:17:00,54.5,41.8,29.96,NE,49,3.0,13.0,62,0.00,,---,0.00,0.00,VWS V14.01,2013-07-30 12:17:00,
2013-07-30 05:22:00,54.3,42.4,29.96,NNE,26,7.0,13.0,64,0.00,,---,0.00,0.00,VWS V14.01,2013-07-30 12:22:00,
2013-07-30 05:27:00,54.1,43.4,29.96,NNE,17,5.0,13.0,67,0.00,,---,0.00,0.00,VWS V14.01,2013-07-30 12:27:00,
2013-07-30 05:32:00,54.0,43.7,29.96,NNE,30,5.0,8.0,68,0.00,,---,0.00,0.00,VWS V14.01,2013-07-30 12:32:00,
2013-07-30 05:37:00,53.9,43.6,29.96,NNE,15,6.0,8.0,68,0.00,,---,0.00,0.00,VWS V14.01,2013-07-30 12:37:00,
2013-07-30 05:42:00,53.9,43.6,29.97,NNE,33,6.0,8.0,68,0.00,,---,0.00,0.00,VWS V14.01,2013-07-30 12:42:00,
2013-07-30 05:48:00,53.8,42.7,29.97,North,9,6.0,9.0,66,0.00,,---,0.00,0.00,VWS V14.01,2013-07-30 12:48:00,
2013-07-30 05:52:00,53.6,42.5,29.97,NNE,28,7.0,11.0,66,0.00,,---,0.00,0.00,VWS V14.01,2013-07-30 12:52:00,
2013-07-30 05:57:00,53.4,42.3,29.97,NE,36,5.0,11.0,66,0.00,,---,0.00,0.00,VWS V14.01,2013-07-30 12:57:00,
2013-07-30 06:02:00,53.3,42.6,29.97,NNW,344,6.0,7.0,67,0.00,,---,0.00,0.00,VWS V14.01,2013-07-30 13:02:00,
2013-07-30 06:07:00,53.1,42.5,29.97,NNE,12,4.0,7.0,67,0.00,,---,0.00,0.00,VWS V14.01,2013-07-30 13:07:00,
2013-07-30 06:12:00,53.0,42.3,29.97,NNE,18,5.0,7.0,67,0.00,,---,0.00,0.00,VWS V14.01,2013-07-30 13:12:00,
2013-07-30 06:17:00,52.9,42.3,29.98,North,9,4.0,7.0,67,0.00,,---,0.00,0.00,VWS V14.01,2013-07-30 13:17:00,
2013-07-30 06:22:00,52.8,41.4,29.98,NNE,15,5.0,8.0,65,0.00,,---,0.00,0.00,VWS V14.01,2013-07-30 13:22:00,
2013-07-30 06:27:00,52.9,40.2,29.98,North,355,3.0,9.0,62,0.00,,---,0.00,0.00,VWS V14.01,2013-07-30 13:27:00,
2013-07-30 06:32:00,53.0,37.7,29.98,NNE,19,4.0,9.0,56,0.00,,---,0.00,0.00,VWS V14.01,2013-07-30 13:32:00,
2013-07-30 06:37:00,53.2,34.0,29.98,North,360,4.0,9.0,48,0.00,,---,0.00,0.00,VWS V14.01,2013-07-30 13:37:00,
2013-07-30 06:42:00,53.5,33.2,29.98,North,5,6.0,9.0,46,0.00,,---,0.00,0.00,VWS V14.01,2013-07-30 13:42:00,
2013-07-30 06:47:00,53.9,33.1,29.98,North,360,6.0,9.0,45,0.00,,---,0.00,0.00,VWS V14.01,2013-07-30 13:47:00,
2013-07-30 06:52:00,54.5,33.0,29.99,North,355,4.0,9.0,44,0.00,,---,0.00,0.00,VWS V14.01,2013-07-30 13:52:00,
2013-07-30 06:57:00,54.9,34.5,29.99,NNE,23,2.0,9.0,46,0.00,,---,0.00,0.00,VWS V14.01,2013-07-30 13:57:00,
2013-07-30 07:02:00,55.2,36.4,29.99,North,5,4.0,7.0,49,0.00,,---,0.00,0.00,VWS V14.01,2013-07-30 14:02:00,
2013-07-30 07:07:00,55.5,37.2,29.99,NE,42,8.0,8.0,50,0.00,,---,0.00,0.00,VWS V14.01,2013-07-30 14:07:00,
2013-07-30 07:12:00,55.6,38.3,29.99,NE,38,4.0,9.0,52,0.00,,---,0.00,0.00,VWS V14.01,2013-07-30 14:12:00,
2013-07-30 07:17:00,55.8,39.9,29.99,NE,46,5.0,9.0,55,0.00,,---,0.00,0.00,VWS V14.01,2013-07-30 14:17:00,
2013-07-30 07:22:00,55.9,40.5,29.99,NNE,22,3.0,9.0,56,0.00,,---,0.00,0.00,VWS V14.01,2013-07-30 14:22:00,
2013-07-30 07:27:00,56.0,41.0,29.99,NE,41,4.0,9.0,57,0.00,,---,0.00,0.00,VWS V14.01,2013-07-30 14:27:00,
2013-07-30 07:32:00,56.1,41.1,29.99,NE,35,2.0,6.0,57,0.00,,---,0.00,0.00,VWS V14.01,2013-07-30 14:32:00,
2013-07-30 07:37:00,56.3,40.8,29.98,NNE,17,5.0,7.0,56,0.00,,---,0.00,0.00,VWS V14.01,2013-07-30 14:37:00,
2013-07-30 07:42:00,56.4,41.4,29.98,North,360,3.0,7.0,57,0.00,,---,0.00,0.00,VWS V14.01,2013-07-30 14:42:00,
2013-07-30 07:47:00,56.6,41.6,29.99,NNE,12,5.0,7.0,57,0.00,,---,0.00,0.00,VWS V14.01,2013-07-30 14:47:00,
2013-07-30 07:52:00,56.6,42.0,29.99,North,360,2.0,7.0,58,0.00,,---,0.00,0.00,VWS V14.01,2013-07-30 14:52:00,
2013-07-30 07:57:00,56.7,42.5,29.99,NE,46,3.0,8.0,59,0.00,,---,0.00,0.00,VWS V14.01,2013-07-30 14:57:00,
2013-07-30 08:02:00,56.8,43.1,29.99,NNE,27,2.0,8.0,60,0.00,,---,0.00,0.00,VWS V14.01,2013-07-30 15:02:00,
2013-07-30 08:07:00,56.8,43.5,29.99,NE,36,5.0,8.0,61,0.00,,---,0.00,0.00,VWS V14.01,2013-07-30 15:07:00,
2013-07-30 08:12:00,57.0,43.7,29.99,NNE,19,3.0,8.0,61,0.00,,---,0.00,0.00,VWS V14.01,2013-07-30 15:12:00,
2013-07-30 08:17:00,57.2,43.9,29.99,NNE,32,4.0,11.0,61,0.00,,---,0.00,0.00,VWS V14.01,2013-07-30 15:17:00,
2013-07-30 08:22:00,57.3,44.0,29.99,NNE,14,5.0,11.0,61,0.00,,---,0.00,0.00,VWS V14.01,2013-07-30 15:22:00,
2013-07-30 08:27:00,57.6,43.4,29.99,NNE,26,2.0,11.0,59,0.00,,---,0.00,0.00,VWS V14.01,2013-07-30 15:27:00,
2013-07-30 08:32:00,57.9,44.1,29.99,NNE,28,3.0,6.0,60,0.00,,---,0.00,0.00,VWS V14.01,2013-07-30 15:32:00,
2013-07-30 08:37:00,58.2,43.5,29.99,NNE,13,4.0,8.0,58,0.00,,---,0.00,0.00,VWS V14.01,2013-07-30 15:37:00,
2013-07-30 08:42:00,58.4,43.2,30.00,NE,41,2.0,8.0,57,0.00,,---,0.00,0.00,VWS V14.01,2013-07-30 15:42:00,
2013-07-30 08:47:00,58.7,44.0,30.00,ENE,63,2.0,8.0,58,0.00,,---,0.00,0.00,VWS V14.01,2013-07-30 15:47:00,
2013-07-30 08:52:00,58.9,43.7,30.00,ENE,62,0.0,8.0,57,0.00,,---,0.00,0.00,VWS V14.01,2013-07-30 15:52:00,
2013-07-30 08:57:00,59.3,43.6,30.00,NE,36,2.0,8.0,56,0.00,,---,0.00,0.00,VWS V14.01,2013-07-30 15:57:00,
2013-07-30 09:02:00,59.7,44.0,29.99,North,5,2.0,5.0,56,0.00,,---,0.00,0.00,VWS V14.01,2013-07-30 16:02:00,
2013-07-30 09:07:00,60.3,44.1,29.99,ENE,63,7.0,7.0,55,0.00,,---,0.00,0.00,VWS V14.01,2013-07-30 16:07:00,
2013-07-30 09:12:00,60.9,44.2,29.99,NNE,25,1.0,7.0,54,0.00,,---,0.00,0.00,VWS V14.01,2013-07-30 16:12:00,
2013-07-30 09:17:00,61.4,44.1,29.99,NE,35,0.0,7.0,53,0.00,,---,0.00,0.00,VWS V14.01,2013-07-30 16:17:00,
2013-07-30 09:22:00,61.8,44.0,29.99,North,5,2.0,7.0,52,0.00,,---,0.00,0.00,VWS V14.01,2013-07-30 16:22:00,
2013-07-30 09:27:00,62.2,43.9,29.99,NNE,22,3.0,7.0,51,0.00,,---,0.00,0.00,VWS V14.01,2013-07-30 16:27:00,
2013-07-30 09:32:00,62.9,44.0,29.99,NNE,33,0.0,3.0,50,0.00,,---,0.00,0.00,VWS V14.01,2013-07-30 16:32:00,
2013-07-30 09:37:00,63.6,43.6,29.99,NE,53,1.0,4.0,48,0.00,,---,0.00,0.00,VWS V14.01,2013-07-30 16:37:00,
2013-07-30 09:42:00,64.3,44.2,29.99,NNE,30,3.0,5.0,48,0.00,,---,0.00,0.00,VWS V14.01,2013-07-30 16:42:00,
2013-07-30 09:47:00,64.7,43.5,29.99,North,11,0.0,7.0,46,0.00,,---,0.00,0.00,VWS V14.01,2013-07-30 16:47:00,
2013-07-30 09:52:00,65.2,42.8,29.99,ENE,69,3.0,7.0,44,0.00,,---,0.00,0.00,VWS V14.01,2013-07-30 16:52:00,
2013-07-30 09:57:00,65.7,42.0,29.99,East,84,0.0,7.0,42,0.00,,---,0.00,0.00,VWS V14.01,2013-07-30 16:57:00,
2013-07-30 10:02:00,66.0,41.0,29.99,ENE,68,2.0,4.0,40,0.00,,---,0.00,0.00,VWS V14.01,2013-07-30 17:02:00,
2013-07-30 10:07:00,66.5,42.1,29.99,NNE,26,2.0,7.0,41,0.00,,---,0.00,0.00,VWS V14.01,2013-07-30 17:07:00,
2013-07-30 10:12:00,66.8,41.7,29.99,North,355,2.0,7.0,40,0.00,,---,0.00,0.00,VWS V14.01,2013-07-30 17:12:00,
2013-07-30 10:17:00,67.1,42.0,29.99,NNW,341,2.0,7.0,40,0.00,,---,0.00,0.00,VWS V14.01,2013-07-30 17:17:00,
2013-07-30 10:22:00,67.6,39.7,29.99,NNE,26,1.0,7.0,36,0.00,,---,0.00,0.00,VWS V14.01,2013-07-30 17:22:00,
2013-07-30 10:27:00,68.1,40.2,30.00,NE,48,0.0,7.0,36,0.00,,---,0.00,0.00,VWS V14.01,2013-07-30 17:27:00,
2013-07-30 10:32:00,68.8,37.8,30.00,North,360,0.0,3.0,32,0.00,,---,0.00,0.00,VWS V14.01,2013-07-30 17:32:00,
2013-07-30 10:37:00,69.2,39.7,30.00,NE,40,1.0,3.0,34,0.00,,---,0.00,0.00,VWS V14.01,2013-07-30 17:37:00,
2013-07-30 10:42:00,69.5,38.4,30.00,East,91,0.0,3.0,32,0.00,,---,0.00,0.00,VWS V14.01,2013-07-30 17:42:00,
2013-07-30 10:47:00,69.7,38.5,30.00,West,262,0.0,3.0,32,0.00,,---,0.00,0.00,VWS V14.01,2013-07-30 17:47:00,
2013-07-30 10:52:00,70.2,37.3,30.00,NE,51,1.0,3.0,30,0.00,,---,0.00,0.00,VWS V14.01,2013-07-30 17:52:00,
2013-07-30 10:57:00,70.6,40.1,30.00,North,360,2.0,4.0,33,0.00,,---,0.00,0.00,VWS V14.01,2013-07-30 17:57:00,
2013-07-30 11:02:00,70.9,40.4,30.00,SE,138,1.0,3.0,33,0.00,,---,0.00,0.00,VWS V14.01,2013-07-30 18:02:00,
2013-07-30 11:07:00,71.2,39.0,30.00,East,101,0.0,3.0,31,0.00,,---,0.00,0.00,VWS V14.01,2013-07-30 18:07:00,
2013-07-30 11:12:00,71.5,39.3,30.00,SSE,160,1.0,3.0,31,0.00,,---,0.00,0.00,VWS V14.01,2013-07-30 18:12:00,
2013-07-30 11:17:00,71.9,39.7,30.00,NNE,18,2.0,5.0,31,0.00,,---,0.00,0.00,VWS V14.01,2013-07-30 18:17:00,
2013-07-30 11:22:00,72.8,36.9,30.00,West,270,0.0,5.0,27,0.00,,---,0.00,0.00,VWS V14.01,2013-07-30 18:22:00,
2013-07-30 11:27:00,73.3,36.4,30.00,SW,221,2.0,5.0,26,0.00,,---,0.00,0.00,VWS V14.01,2013-07-30 18:27:00,
2013-07-30 11:32:00,73.8,36.8,29.99,SSE,148,1.0,4.0,26,0.00,,---,0.00,0.00,VWS V14.01,2013-07-30 18:32:00,
2013-07-30 11:37:00,74.1,35.0,29.99,ESE,122,1.0,4.0,24,0.00,,---,0.00,0.00,VWS V14.01,2013-07-30 18:37:00,
2013-07-30 11:42:00,74.5,35.4,29.99,WNW,291,0.0,4.0,24,0.00,,---,0.00,0.00,VWS V14.01,2013-07-30 18:42:00,
2013-07-30 11:47:00,75.3,35.0,29.99,SW,231,4.0,4.0,23,0.00,,---,0.00,0.00,VWS V14.01,2013-07-30 18:47:00,
2013-07-30 11:52:00,76.1,34.5,29.99,SW,232,3.0,4.0,22,0.00,,---,0.00,0.00,VWS V14.01,2013-07-30 18:52:00,
2013-07-30 11:57:00,76.2,34.6,29.99,WSW,254,1.0,6.0,22,0.00,,---,0.00,0.00,VWS V14.01,2013-07-30 18:57:00,
2013-07-30 12:02:00,76.4,35.9,29.99,West,273,0.0,4.0,23,0.00,,---,0.00,0.00,VWS V14.01,2013-07-30 19:02:00,
2013-07-30 12:07:00,76.6,35.0,29.99,WSW,241,2.0,6.0,22,0.00,,---,0.00,0.00,VWS V14.01,2013-07-30 19:07:00,
2013-07-30 12:12:00,77.0,35.3,29.99,SSW,211,2.0,8.0,22,0.00,,---,0.00,0.00,VWS V14.01,2013-07-30 19:12:00,
2013-07-30 12:17:00,77.3,34.4,29.99,SSW,213,0.0,8.0,21,0.00,,---,0.00,0.00,VWS V14.01,2013-07-30 19:17:00,
2013-07-30 12:22:00,78.0,36.1,29.98,SW,231,0.0,8.0,22,0.00,,---,0.00,0.00,VWS V14.01,2013-07-30 19:22:00,
2013-07-30 12:27:00,78.7,35.5,29.98,SW,235,5.0,8.0,21,0.00,,---,0.00,0.00,VWS V14.01,2013-07-30 19:27:00,
2013-07-30 12:32:00,79.1,37.0,29.98,South,171,1.0,4.0,22,0.00,,---,0.00,0.00,VWS V14.01,2013-07-30 19:32:00,
2013-07-30 12:37:00,79.6,32.4,29.97,SW,234,4.0,9.0,18,0.00,,---,0.00,0.00,VWS V14.01,2013-07-30 19:37:00,
2013-07-30 12:42:00,79.7,32.5,29.97,SW,223,2.0,9.0,18,0.00,,---,0.00,0.00,VWS V14.01,2013-07-30 19:42:00,
2013-07-30 12:47:00,79.9,32.7,29.97,SSW,197,1.0,9.0,18,0.00,,---,0.00,0.00,VWS V14.01,2013-07-30 19:47:00,
2013-07-30 12:52:00,80.2,32.9,29.97,South,189,3.0,9.0,18,0.00,,---,0.00,0.00,VWS V14.01,2013-07-30 19:52:00,
2013-07-30 12:57:00,80.5,33.1,29.97,SSE,165,0.0,9.0,18,0.00,,---,0.00,0.00,VWS V14.01,2013-07-30 19:57:00,
2013-07-30 13:02:00,81.2,30.8,29.97,West,265,6.0,6.0,16,0.00,,---,0.00,0.00,VWS V14.01,2013-07-30 20:02:00,
2013-07-30 13:07:00,81.6,34.0,29.97,SW,234,3.0,7.0,18,0.00,,---,0.00,0.00,VWS V14.01,2013-07-30 20:07:00,
2013-07-30 13:12:00,82.1,31.5,29.97,SSW,211,0.0,7.0,16,0.00,,---,0.00,0.00,VWS V14.01,2013-07-30 20:12:00,
2013-07-30 13:17:00,82.3,28.4,29.97,WSW,239,3.0,7.0,14,0.00,,---,0.00,0.00,VWS V14.01,2013-07-30 20:17:00,
2013-07-30 13:22:00,82.2,28.3,29.97,South,171,1.0,7.0,14,0.00,,---,0.00,0.00,VWS V14.01,2013-07-30 20:22:00,
2013-07-30 13:27:00,82.4,28.5,29.96,WSW,240,2.0,7.0,14,0.00,,---,0.00,0.00,VWS V14.01,2013-07-30 20:27:00,
2013-07-30 13:32:00,82.6,26.8,29.96,SW,227,3.0,6.0,13,0.00,,---,0.00,0.00,VWS V14.01,2013-07-30 20:32:00,
2013-07-30 13:37:00,83.0,25.2,29.96,SW,228,3.0,8.0,12,0.00,,---,0.00,0.00,VWS V14.01,2013-07-30 20:37:00,
2013-07-30 13:42:00,83.1,27.2,29.96,SSW,205,6.0,8.0,13,0.00,,---,0.00,0.00,VWS V14.01,2013-07-30 20:42:00,
2013-07-30 13:47:00,83.5,27.5,29.96,SSW,196,7.0,8.0,13,0.00,,---,0.00,0.00,VWS V14.01,2013-07-30 20:47:00,
2013-07-30 13:52:00,83.6,27.6,29.95,WSW,250,4.0,8.0,13,0.00,,---,0.00,0.00,VWS V14.01,2013-07-30 20:52:00,
2013-07-30 13:57:00,83.8,29.6,29.96,SSE,167,3.0,8.0,14,0.00,,---,0.00,0.00,VWS V14.01,2013-07-30 20:57:00,
2013-07-30 14:02:00,84.0,31.4,29.96,West,268,3.0,6.0,15,0.00,,---,0.00,0.00,VWS V14.01,2013-07-30 21:02:00,
2013-07-30 14:07:00,84.3,28.2,29.96,South,188,4.0,6.0,13,0.00,,---,0.00,0.00,VWS V14.01,2013-07-30 21:07:00,
2013-07-30 14:12:00,84.3,28.2,29.96,SE,144,3.0,8.0,13,0.00,,---,0.00,0.00,VWS V14.01,2013-07-30 21:12:00,
2013-07-30 14:17:00,84.9,32.2,29.95,SW,222,3.0,9.0,15,0.00,,---,0.00,0.00,VWS V14.01,2013-07-30 21:17:00,
2013-07-30 14:22:00,85.4,29.0,29.95,SSW,194,0.0,9.0,13,0.00,,---,0.00,0.00,VWS V14.01,2013-07-30 21:22:00,
2013-07-30 14:27:00,86.4,29.8,29.95,SSE,159,0.0,9.0,13,0.00,,---,0.00,0.00,VWS V14.01,2013-07-30 21:27:00,
2013-07-30 14:32:00,87.1,28.4,29.95,South,178,6.0,7.0,12,0.00,,---,0.00,0.00,VWS V14.01,2013-07-30 21:32:00,
2013-07-30 14:37:00,86.9,28.2,29.95,SSW,206,1.0,7.0,12,0.00,,---,0.00,0.00,VWS V14.01,2013-07-30 21:37:00,
2013-07-30 14:42:00,86.7,31.9,29.95,SW,217,4.0,7.0,14,0.00,,---,0.00,0.00,VWS V14.01,2013-07-30 21:42:00,
2013-07-30 14:47:00,87.0,30.3,29.95,SSE,159,5.0,8.0,13,0.00,,---,0.00,0.00,VWS V14.01,2013-07-30 21:47:00,
2013-07-30 14:52:00,87.1,28.4,29.94,SW,214,2.0,8.0,12,0.00,,---,0.00,0.00,VWS V14.01,2013-07-30 21:52:00,
2013-07-30 14:57:00,86.7,28.1,29.95,South,180,4.0,8.0,12,0.00,,---,0.00,0.00,VWS V14.01,2013-07-30 21:57:00,
2013-07-30 15:02:00,86.4,27.9,29.95,SW,221,3.0,5.0,12,0.00,,---,0.00,0.00,VWS V14.01,2013-07-30 22:02:00,
2013-07-30 15:07:00,85.8,25.3,29.95,SE,143,2.0,8.0,11,0.00,,---,0.00,0.00,VWS V14.01,2013-07-30 22:07:00,
2013-07-30 15:12:00,85.6,27.2,29.94,SW,224,0.0,8.0,12,0.00,,---,0.00,0.00,VWS V14.01,2013-07-30 22:12:00,
2013-07-30 15:17:00,85.1,28.8,29.94,West,259,4.0,8.0,13,0.00,,---,0.00,0.00,VWS V14.01,2013-07-30 22:17:00,
2013-07-30 15:22:00,84.8,26.6,29.94,West,277,4.0,8.0,12,0.00,,---,0.00,0.00,VWS V14.01,2013-07-30 22:22:00,
2013-07-30 15:27:00,84.5,30.1,29.94,WSW,251,1.0,8.0,14,0.00,,---,0.00,0.00,VWS V14.01,2013-07-30 22:27:00,
2013-07-30 15:32:00,84.9,30.4,29.93,SSW,194,3.0,7.0,14,0.00,,---,0.00,0.00,VWS V14.01,2013-07-30 22:32:00,
2013-07-30 15:37:00,86.0,27.5,29.93,South,181,2.0,7.0,12,0.00,,---,0.00,0.00,VWS V14.01,2013-07-30 22:37:00,
2013-07-30 15:42:00,86.6,30.0,29.93,SW,215,11.0,11.0,13,0.00,,---,0.00,0.00,VWS V14.01,2013-07-30 22:42:00,
2013-07-30 15:47:00,87.0,30.3,29.94,South,175,2.0,11.0,13,0.00,,---,0.00,0.00,VWS V14.01,2013-07-30 22:47:00,
2013-07-30 15:52:00,87.1,26.3,29.94,SW,228,4.0,11.0,11,0.00,,---,0.00,0.00,VWS V14.01,2013-07-30 22:52:00,
2013-07-30 15:57:00,87.0,30.3,29.94,SSW,213,3.0,11.0,13,0.00,,---,0.00,0.00,VWS V14.01,2013-07-30 22:57:00,
2013-07-30 16:02:00,87.0,26.2,29.94,SW,226,4.0,5.0,11,0.00,,---,0.00,0.00,VWS V14.01,2013-07-30 23:02:00,
2013-07-30 16:07:00,86.4,27.9,29.94,South,176,5.0,7.0,12,0.00,,---,0.00,0.00,VWS V14.01,2013-07-30 23:07:00,
2013-07-30 16:12:00,86.6,28.0,29.93,SSW,207,2.0,8.0,12,0.00,,---,0.00,0.00,VWS V14.01,2013-07-30 23:12:00,
2013-07-30 16:17:00,86.4,27.9,29.93,SW,227,1.0,8.0,12,0.00,,---,0.00,0.00,VWS V14.01,2013-07-30 23:17:00,
2013-07-30 16:22:00,86.3,27.8,29.93,WSW,247,0.0,10.0,12,0.00,,---,0.00,0.00,VWS V14.01,2013-07-30 23:22:00,
2013-07-30 16:27:00,86.0,25.4,29.93,SW,215,4.0,10.0,11,0.00,,---,0.00,0.00,VWS V14.01,2013-07-30 23:27:00,
2013-07-30 16:32:00,85.7,27.3,29.93,SSE,147,0.0,4.0,12,0.00,,---,0.00,0.00,VWS V14.01,2013-07-30 23:32:00,
2013-07-30 16:37:00,85.7,25.2,29.93,SW,229,2.0,4.0,11,0.00,,---,0.00,0.00,VWS V14.01,2013-07-30 23:37:00,
2013-07-30 16:42:00,85.7,29.2,29.93,South,184,2.0,5.0,13,0.00,,---,0.00,0.00,VWS V14.01,2013-07-30 23:42:00,
2013-07-30 16:47:00,85.7,25.2,29.93,SSW,205,0.0,8.0,11,0.00,,---,0.00,0.00,VWS V14.01,2013-07-30 23:47:00,
2013-07-30 16:52:00,85.6,27.2,29.93,WSW,238,0.0,8.0,12,0.00,,---,0.00,0.00,VWS V14.01,2013-07-30 23:52:00,
2013-07-30 16:57:00,85.5,27.1,29.93,West,264,4.0,8.0,12,0.00,,---,0.00,0.00,VWS V14.01,2013-07-30 23:57:00,
2013-07-30 17:02:00,85.3,27.0,29.93,SSW,192,4.0,9.0,12,0.00,,---,0.00,0.00,VWS V14.01,2013-07-31 00:02:00,
2013-07-30 17:07:00,84.8,26.6,29.93,WSW,240,4.0,9.0,12,0.00,,---,0.00,0.00,VWS V14.01,2013-07-31 00:07:00,
2013-07-30 17:12:00,84.2,26.1,29.93,SSW,207,3.0,9.0,12,0.00,,---,0.00,0.00,VWS V14.01,2013-07-31 00:12:00,
2013-07-30 17:17:00,83.6,25.7,29.93,SSW,208,3.0,9.0,12,0.00,,---,0.00,0.00,VWS V14.01,2013-07-31 00:17:00,
2013-07-30 17:22:00,83.3,25.4,29.93,SSW,194,1.0,9.0,12,0.00,,---,0.00,0.00,VWS V14.01,2013-07-31 00:22:00,
2013-07-30 17:27:00,83.3,27.4,29.93,SSE,151,1.0,9.0,13,0.00,,---,0.00,0.00,VWS V14.01,2013-07-31 00:27:00,
2013-07-30 17:32:00,83.7,27.7,29.93,SW,226,4.0,6.0,13,0.00,,---,0.00,0.00,VWS V14.01,2013-07-31 00:32:00,
2013-07-30 17:37:00,83.8,27.8,29.93,WSW,239,4.0,7.0,13,0.00,,---,0.00,0.00,VWS V14.01,2013-07-31 00:37:00,
2013-07-30 17:42:00,83.8,25.8,29.93,SE,144,4.0,7.0,12,0.00,,---,0.00,0.00,VWS V14.01,2013-07-31 00:42:00,
2013-07-30 17:47:00,84.0,27.9,29.93,SW,217,0.0,7.0,13,0.00,,---,0.00,0.00,VWS V14.01,2013-07-31 00:47:00,
2013-07-30 17:52:00,84.0,26.0,29.93,SW,227,0.0,7.0,12,0.00,,---,0.00,0.00,VWS V14.01,2013-07-31 00:52:00,
2013-07-30 17:57:00,83.6,25.7,29.93,WSW,250,2.0,8.0,12,0.00,,---,0.00,0.00,VWS V14.01,2013-07-31 00:57:00,
2013-07-30 18:02:00,83.4,27.5,29.93,SSE,152,4.0,5.0,13,0.00,,---,0.00,0.00,VWS V14.01,2013-07-31 01:02:00,
2013-07-30 18:07:00,83.4,27.5,29.93,South,184,0.0,5.0,13,0.00,,---,0.00,0.00,VWS V14.01,2013-07-31 01:07:00,
2013-07-30 18:12:00,83.0,27.1,29.93,SW,217,0.0,5.0,13,0.00,,---,0.00,0.00,VWS V14.01,2013-07-31 01:12:00,
2013-07-30 18:17:00,82.9,27.1,29.93,South,186,2.0,6.0,13,0.00,,---,0.00,0.00,VWS V14.01,2013-07-31 01:17:00,
2013-07-30 18:22:00,82.9,28.9,29.93,SSE,160,2.0,6.0,14,0.00,,---,0.00,0.00,VWS V14.01,2013-07-31 01:22:00,
2013-07-30 18:27:00,82.8,28.8,29.93,SW,216,0.0,6.0,14,0.00,,---,0.00,0.00,VWS V14.01,2013-07-31 01:27:00,
2013-07-30 18:32:00,82.7,28.7,29.93,SSW,198,2.0,4.0,14,0.00,,---,0.00,0.00,VWS V14.01,2013-07-31 01:32:00,
2013-07-30 18:37:00,82.6,31.9,29.93,South,176,9.0,10.0,16,0.00,,---,0.00,0.00,VWS V14.01,2013-07-31 01:37:00,
2013-07-30 18:42:00,82.1,37.1,29.93,South,189,8.0,12.0,20,0.00,,---,0.00,0.00,VWS V14.01,2013-07-31 01:42:00,
2013-07-30 18:47:00,81.6,39.1,29.94,SSE,162,8.0,12.0,22,0.00,,---,0.00,0.00,VWS V14.01,2013-07-31 01:47:00,
2013-07-30 18:52:00,81.0,39.8,29.94,SSE,147,4.0,13.0,23,0.00,,---,0.00,0.00,VWS V14.01,2013-07-31 01:52:00,
2013-07-30 18:57:00,80.7,40.6,29.94,SSE,165,8.0,13.0,24,0.00,,---,0.00,0.00,VWS V14.01,2013-07-31 01:57:00,
2013-07-30 19:02:00,80.3,41.3,29.94,SE,140,7.0,8.0,25,0.00,,---,0.00,0.00,VWS V14.01,2013-07-31 02:02:00,
2013-07-30 19:07:00,79.9,42.0,29.94,SE,143,5.0,12.0,26,0.00,,---,0.00,0.00,VWS V14.01,2013-07-31 02:07:00,
2013-07-30 19:12:00,79.6,41.7,29.94,SSE,158,7.0,12.0,26,0.00,,---,0.00,0.00,VWS V14.01,2013-07-31 02:12:00,
2013-07-30 19:17:00,79.1,41.3,29.95,SSE,163,2.0,12.0,26,0.00,,---,0.00,0.00,VWS V14.01,2013-07-31 02:17:00,
2013-07-30 19:22:00,78.8,43.0,29.95,SE,141,0.0,12.0,28,0.00,,---,0.00,0.00,VWS V14.01,2013-07-31 02:22:00,
2013-07-30 19:27:00,78.7,42.9,29.96,South,169,3.0,12.0,28,0.00,,---,0.00,0.00,VWS V14.01,2013-07-31 02:27:00,
2013-07-30 19:32:00,78.4,41.7,29.96,SSE,155,3.0,7.0,27,0.00,,---,0.00,0.00,VWS V14.01,2013-07-31 02:32:00,
2013-07-30 19:37:00,78.2,41.5,29.95,ESE,120,3.0,8.0,27,0.00,,---,0.00,0.00,VWS V14.01,2013-07-31 02:37:00,
2013-07-30 19:42:00,78.0,42.3,29.95,SSE,147,0.0,8.0,28,0.00,,---,0.00,0.00,VWS V14.01,2013-07-31 02:42:00,
2013-07-30 19:47:00,77.8,42.1,29.96,SSE,147,2.0,8.0,28,0.00,,---,0.00,0.00,VWS V14.01,2013-07-31 02:47:00,
2013-07-30 19:52:00,77.6,42.0,29.96,South,186,0.0,8.0,28,0.00,,---,0.00,0.00,VWS V14.01,2013-07-31 02:52:00,
2013-07-30 19:57:00,77.4,41.8,29.96,South,180,3.0,8.0,28,0.00,,---,0.00,0.00,VWS V14.01,2013-07-31 02:57:00,
2013-07-30 20:02:00,77.2,41.6,29.96,South,173,0.0,1.0,28,0.00,,---,0.00,0.00,VWS V14.01,2013-07-31 03:02:00,
2013-07-30 20:07:00,77.0,41.4,29.96,SW,219,0.0,3.0,28,0.00,,---,0.00,0.00,VWS V14.01,2013-07-31 03:07:00,
2013-07-30 20:12:00,76.6,42.0,29.96,South,177,0.0,3.0,29,0.00,,---,0.00,0.00,VWS V14.01,2013-07-31 03:12:00,
2013-07-30 20:17:00,76.2,42.5,29.97,South,177,0.0,3.0,30,0.00,,---,0.00,0.00,VWS V14.01,2013-07-31 03:17:00,
2013-07-30 20:22:00,75.9,42.3,29.97,South,177,0.0,3.0,30,0.00,,---,0.00,0.00,VWS V14.01,2013-07-31 03:22:00,
2013-07-30 20:27:00,75.5,42.8,29.97,South,190,0.0,3.0,31,0.00,,---,0.00,0.00,VWS V14.01,2013-07-31 03:27:00,
2013-07-30 20:32:00,75.0,42.3,29.97,SW,224,0.0,2.0,31,0.00,,---,0.00,0.00,VWS V14.01,2013-07-31 03:32:00,
2013-07-30 20:37:00,74.6,42.8,29.97,SW,224,0.0,2.0,32,0.00,,---,0.00,0.00,VWS V14.01,2013-07-31 03:37:00,
2013-07-30 20:42:00,74.3,42.6,29.98,SSW,207,0.0,2.0,32,0.00,,---,0.00,0.00,VWS V14.01,2013-07-31 03:42:00,
2013-07-30 20:47:00,74.0,43.1,29.98,SW,231,2.0,3.0,33,0.00,,---,0.00,0.00,VWS V14.01,2013-07-31 03:47:00,
2013-07-30 20:52:00,73.6,42.8,29.98,SW,229,0.0,3.0,33,0.00,,---,0.00,0.00,VWS V14.01,2013-07-31 03:52:00,
2013-07-30 20:57:00,73.4,43.3,29.98,SW,229,0.0,3.0,34,0.00,,---,0.00,0.00,VWS V14.01,2013-07-31 03:57:00,
2013-07-30 21:01:00,73.2,43.2,29.98,SW,228,0.0,2.0,34,0.00,,---,0.00,0.00,VWS V14.01,2013-07-31 04:01:00,
2013-07-30 21:02:00,73.2,43.2,29.98,SW,228,0.0,2.0,34,0.00,,---,0.00,0.00,VWS V14.01,2013-07-31 04:02:00,
2013-07-30 21:07:00,73.0,43.0,29.99,SW,221,0.0,2.0,34,0.00,,---,0.00,0.00,VWS V14.01,2013-07-31 04:07:00,
2013-07-30 21:12:00,72.8,43.6,29.99,SW,234,0.0,3.0,35,0.00,,---,0.00,0.00,VWS V14.01,2013-07-31 04:12:00,
2013-07-30 21:17:00,72.5,44.1,29.99,SSW,197,0.0,3.0,36,0.00,,---,0.00,0.00,VWS V14.01,2013-07-31 04:17:00,
2013-07-30 21:22:00,72.3,44.6,29.99,WSW,238,0.0,3.0,37,0.00,,---,0.00,0.00,VWS V14.01,2013-07-31 04:22:00,
2013-07-30 21:27:00,72.0,44.3,29.99,SW,234,1.0,3.0,37,0.00,,---,0.00,0.00,VWS V14.01,2013-07-31 04:27:00,
2013-07-30 21:32:00,71.8,44.8,29.99,SW,232,0.0,3.0,38,0.00,,---,0.00,0.00,VWS V14.01,2013-07-31 04:32:00,
2013-07-30 21:37:00,71.5,45.3,30.00,SW,232,2.0,3.0,39,0.00,,---,0.00,0.00,VWS V14.01,2013-07-31 04:37:00,
2013-07-30 21:42:00,71.2,45.0,30.00,SW,232,0.0,3.0,39,0.00,,---,0.00,0.00,VWS V14.01,2013-07-31 04:42:00,
2013-07-30 21:47:00,71.0,45.5,30.00,SW,232,0.0,3.0,40,0.00,,---,0.00,0.00,VWS V14.01,2013-07-31 04:47:00,
2013-07-30 21:52:00,70.8,45.3,30.00,SW,236,0.0,3.0,40,0.00,,---,0.00,0.00,VWS V14.01,2013-07-31 04:52:00,
2013-07-30 21:57:00,70.7,45.9,30.00,SW,236,0.0,3.0,41,0.00,,---,0.00,0.00,VWS V14.01,2013-07-31 04:57:00,
2013-07-30 22:02:00,70.3,45.5,29.99,SW,215,0.0,2.0,41,0.00,,---,0.00,0.00,VWS V14.01,2013-07-31 05:02:00,
2013-07-30 22:07:00,70.0,45.9,29.99,SW,216,0.0,2.0,42,0.00,,---,0.00,0.00,VWS V14.01,2013-07-31 05:07:00,
2013-07-30 22:12:00,69.8,45.7,29.99,SW,221,0.0,2.0,42,0.00,,---,0.00,0.00,VWS V14.01,2013-07-31 05:12:00,
2013-07-30 22:17:00,69.5,45.4,29.99,SW,220,0.0,2.0,42,0.00,,---,0.00,0.00,VWS V14.01,2013-07-31 05:17:00,
2013-07-30 22:22:00,69.3,45.9,30.00,SW,223,0.0,2.0,43,0.00,,---,0.00,0.00,VWS V14.01,2013-07-31 05:22:00,
2013-07-30 22:27:00,69.1,45.7,30.01,SW,221,0.0,2.0,43,0.00,,---,0.00,0.00,VWS V14.01,2013-07-31 05:27:00,
2013-07-30 22:32:00,68.9,44.9,30.01,SW,221,0.0,0.0,42,0.00,,---,0.00,0.00,VWS V14.01,2013-07-31 05:32:00,
2013-07-30 22:37:00,68.5,45.1,30.01,SW,221,0.0,0.0,43,0.00,,---,0.00,0.00,VWS V14.01,2013-07-31 05:37:00,
2013-07-30 22:42:00,68.1,46.0,30.01,SW,221,0.0,0.0,45,0.00,,---,0.00,0.00,VWS V14.01,2013-07-31 05:42:00,
2013-07-30 22:47:00,67.8,45.7,30.01,SW,229,3.0,3.0,45,0.00,,---,0.00,0.00,VWS V14.01,2013-07-31 05:47:00,
2013-07-30 22:52:00,67.8,46.3,30.01,SW,223,0.0,3.0,46,0.00,,---,0.00,0.00,VWS V14.01,2013-07-31 05:52:00,
2013-07-30 22:57:00,67.8,45.7,30.01,SW,217,0.0,3.0,45,0.00,,---,0.00,0.00,VWS V14.01,2013-07-31 05:57:00,
2013-07-30 23:02:00,67.8,45.7,30.01,SSW,208,0.0,0.0,45,0.00,,---,0.00,0.00,VWS V14.01,2013-07-31 06:02:00,
2013-07-30 23:07:00,67.7,45.6,30.01,SSW,208,0.0,1.0,45,0.00,,---,0.00,0.00,VWS V14.01,2013-07-31 06:07:00,
2013-07-30 23:12:00,67.6,45.5,30.01,SSW,208,0.0,1.0,45,0.00,,---,0.00,0.00,VWS V14.01,2013-07-31 06:12:00,
2013-07-30 23:17:00,67.5,45.4,30.01,South,186,1.0,1.0,45,0.00,,---,0.00,0.00,VWS V14.01,2013-07-31 06:17:00,
2013-07-30 23:22:00,67.4,45.3,30.00,South,184,0.0,2.0,45,0.00,,---,0.00,0.00,VWS V14.01,2013-07-31 06:22:00,
2013-07-30 23:27:00,67.2,45.2,30.00,SW,219,0.0,2.0,45,0.00,,---,0.00,0.00,VWS V14.01,2013-07-31 06:27:00,
2013-07-30 23:32:00,67.0,45.0,30.01,SW,219,0.0,1.0,45,0.00,,---,0.00,0.00,VWS V14.01,2013-07-31 06:32:00,
2013-07-30 23:37:00,66.6,45.2,30.01,South,186,0.0,1.0,46,0.00,,---,0.00,0.00,VWS V14.01,2013-07-31 06:37:00,
2013-07-30 23:42:00,66.3,45.5,30.00,South,186,0.0,2.0,47,0.00,,---,0.00,0.00,VWS V14.01,2013-07-31 06:42:00,
2013-07-30 23:47:00,66.1,44.7,30.01,WSW,238,1.0,2.0,46,0.00,,---,0.00,0.00,VWS V14.01,2013-07-31 06:47:00,
2013-07-30 23:52:00,65.5,45.3,30.00,WSW,249,0.0,2.0,48,0.00,,---,0.00,0.00,VWS V14.01,2013-07-31 06:52:00,
2013-07-30 23:57:00,65.3,45.1,30.00,SW,229,0.0,2.0,48,0.00,,---,0.00,0.00,VWS V14.01,2013-07-31 06:57:00,